User: anonymous   Login
Location: Stendal
(52.5994°N, 11.8400°E)
Time: 11:13:59
(UTC+02:00)
Language:

PCSat - Orbit

View from above orbital plane
View from above orbital plane
View from above satellite
View from above satellite

Ground track
Ground track

The orbit data is extracted from the following two-line orbital elements,

1 26931U 01043C   21293.52671944 -.00000001  00000-0  31352-4 0  9994
2 26931  67.0510 317.6466 0005632 273.4657  86.5800 14.30637904 47088
Epoch (UTC): 20 October 2021 12:38:28
Eccentricity: 0.0005632
inclination: 67.0510°
perigee height: 785 km
apogee height: 793 km
right ascension of ascending node: 317.6466°
argument of perigee: 273.4657°
revolutions per day: 14.30637904
mean anomaly at epoch: 86.5800°
orbit number at epoch: 4708

The dashed part of the orbit path shows where the satellite is in the earth's shadow,  

DLR